| time (UTC) | temp F | wind direction | speed MPH | gust MPH | rain 1hr in | rain 24hr in | rain mn in | humidity % | barometer mb |
| 20260507005904 | 57 | 241 | 2.0 | 12.0 | 0.00 | 0.00 | 0.00 | 21 | 1017.1 |
| 20260507004904 | 57 | 236 | 1.0 | 13.0 | 0.00 | 0.00 | 0.00 | 20 | 1017.0 |
| 20260507004404 | 57 | 239 | 6.0 | 14.0 | 0.00 | 0.00 | 0.00 | 21 | 1017.0 |
| 20260507003904 | 57 | 225 | 1.0 | 12.0 | 0.00 | 0.00 | 0.00 | 21 | 1016.9 |
| 20260507002904 | 58 | 231 | 0.0 | 8.0 | 0.00 | 0.00 | 0.00 | 20 | 1016.9 |
| 20260507002404 | 58 | 230 | 5.0 | 13.0 | 0.00 | 0.00 | 0.00 | 18 | 1016.9 |
| 20260507001904 | 59 | 231 | 0.0 | 1.0 | 0.00 | 0.00 | 0.00 | 20 | 1016.8 |
| 20260507001404 | 59 | 228 | 0.0 | 6.0 | 0.00 | 0.00 | 0.00 | 19 | 1016.8 |
| 20260507000405 | 59 | 342 | 1.0 | 6.0 | 0.00 | 0.00 | 0.00 | 17 | 1016.7 |
| 20260506235904 | 59 | 355 | 0.0 | 8.0 | 0.00 | 0.00 | 0.00 | 16 | 1016.9 |
| 20260506235404 | 59 | 304 | 1.0 | 15.0 | 0.00 | 0.00 | 0.00 | 17 | 1016.7 |
| 20260506234904 | 58 | 224 | 5.0 | 16.0 | 0.00 | 0.00 | 0.00 | 19 | 1016.7 |
| 20260506233903 | 57 | 229 | 0.0 | 2.0 | 0.00 | 0.00 | 0.00 | 17 | 1016.8 |
| 20260506233404 | 57 | 233 | 0.0 | 3.0 | 0.00 | 0.00 | 0.00 | 16 | 1016.7 |
| 20260506232904 | 58 | 0 | 1.0 | 9.0 | 0.00 | 0.00 | 0.00 | 15 | 1016.7 |
| 20260506232404 | 58 | 41 | 1.0 | 9.0 | 0.00 | 0.00 | 0.00 | 15 | 1016.7 |
| 20260506231905 | 59 | 301 | 0.0 | 0.0 | 0.00 | 0.00 | 0.00 | 15 | 1016.6 |
| 20260506230904 | 60 | 264 | 1.0 | 3.0 | 0.00 | 0.00 | 0.00 | 13 | 1016.7 |
| 20260506230404 | 59 | 24 | 1.0 | 7.0 | 0.00 | 0.00 | 0.00 | 14 | 1016.8 |
| 20260506225904 | 60 | 15 | 5.0 | 16.0 | 0.00 | 0.00 | 0.00 | 13 | 1016.8 |
| 20260506225404 | 61 | 5 | 1.0 | 12.0 | 0.00 | 0.00 | 0.00 | 13 | 1016.9 |
| 20260506224904 | 61 | 88 | 0.0 | 2.0 | 0.00 | 0.00 | 0.00 | 13 | 1016.9 |
| 20260506224403 | 61 | 125 | 0.0 | 3.0 | 0.00 | 0.00 | 0.00 | 12 | 1017.0 |
| 20260506223904 | 61 | 229 | 3.0 | 9.0 | 0.00 | 0.00 | 0.00 | 11 | 1017.0 |
| 20260506223404 | 61 | 234 | 1.0 | 8.0 | 0.00 | 0.00 | 0.00 | 12 | 1017.0 |
| 20260506222904 | 61 | 212 | 2.0 | 8.0 | 0.00 | 0.00 | 0.00 | 11 | 1017.0 |
| 20260506222404 | 61 | 230 | 3.0 | 8.0 | 0.00 | 0.00 | 0.00 | 11 | 1017.1 |
| 20260506221903 | 61 | 281 | 0.0 | 3.0 | 0.00 | 0.00 | 0.00 | 11 | 1017.0 |
| 20260506221403 | 61 | 222 | 2.0 | 9.0 | 0.00 | 0.00 | 0.00 | 12 | 1017.2 |
| 20260506220404 | 60 | 259 | 1.0 | 7.0 | 0.00 | 0.00 | 0.00 | 10 | 1017.5 |
| 20260506215905 | 60 | 312 | 4.0 | 14.0 | 0.00 | 0.00 | 0.00 | 10 | 1017.2 |
| 20260506215404 | 60 | 44 | 1.0 | 6.0 | 0.00 | 0.00 | 0.00 | 9 | 1017.1 |
| 20260506214904 | 59 | 249 | 0.0 | 12.0 | 0.00 | 0.00 | 0.00 | 12 | 1017.1 |
| 20260506214404 | 59 | 17 | 0.0 | 9.0 | 0.00 | 0.00 | 0.00 | 10 | 1017.1 |
| 20260506213404 | 59 | 37 | 4.0 | 12.0 | 0.00 | 0.00 | 0.00 | 10 | 1017.1 |
| 20260506212904 | 59 | 251 | 2.0 | 9.0 | 0.00 | 0.00 | 0.00 | 11 | 1017.2 |
| 20260506212404 | 58 | 359 | 1.0 | 10.0 | 0.00 | 0.00 | 0.00 | 11 | 1017.3 |
| 20260506211905 | 59 | 36 | 1.0 | 10.0 | 0.00 | 0.00 | 0.00 | 10 | 1017.3 |
| 20260506211405 | 59 | 323 | 2.0 | 6.0 | 0.00 | 0.00 | 0.00 | 9 | 1017.4 |
| 20260506210904 | 59 | 9 | 1.0 | 2.0 | 0.00 | 0.00 | 0.00 | 11 | 1017.5 |
| 20260506210408 | 59 | 252 | 0.0 | 5.0 | 0.00 | 0.00 | 0.00 | 11 | 1017.5 |
| 20260506205904 | 58 | 25 | 0.0 | 8.0 | 0.00 | 0.00 | 0.00 | 11 | 1017.4 |
| 20260506205404 | 59 | 276 | 1.0 | 12.0 | 0.00 | 0.00 | 0.00 | 11 | 1017.4 |
| 20260506204904 | 58 | 273 | 1.0 | 9.0 | 0.00 | 0.00 | 0.00 | 13 | 1017.4 |
| 20260506204404 | 58 | 249 | 5.0 | 13.0 | 0.00 | 0.00 | 0.00 | 12 | 1017.4 |
| 20260506203904 | 58 | 225 | 3.0 | 12.0 | 0.00 | 0.00 | 0.00 | 13 | 1017.4 |
| 20260506203404 | 57 | 266 | 2.0 | 12.0 | 0.00 | 0.00 | 0.00 | 12 | 1017.4 |
| 20260506202904 | 57 | 224 | 6.0 | 13.0 | 0.00 | 0.00 | 0.00 | 12 | 1017.5 |
| 20260506202404 | 57 | 229 | 0.0 | 12.0 | 0.00 | 0.00 | 0.00 | 12 | 1017.5 |
| 20260506201904 | 57 | 241 | 1.0 | 5.0 | 0.00 | 0.00 | 0.00 | 13 | 1017.5 |
| 20260506201404 | 57 | 249 | 0.0 | 5.0 | 0.00 | 0.00 | 0.00 | 13 | 1017.4 |
| 20260506200904 | 57 | 231 | 0.0 | 3.0 | 0.00 | 0.00 | 0.00 | 12 | 1017.5 |
| 20260506200404 | 57 | 239 | 4.0 | 12.0 | 0.00 | 0.00 | 0.00 | 13 | 1017.6 |
| 20260506195904 | 56 | 207 | 6.0 | 20.0 | 0.00 | 0.00 | 0.00 | 15 | 1017.4 |
| 20260506195404 | 57 | 224 | 8.0 | 20.0 | 0.00 | 0.00 | 0.00 | 15 | 1017.3 |
| 20260506194404 | 56 | 241 | 7.0 | 14.0 | 0.00 | 0.00 | 0.00 | 13 | 1017.5 |
| 20260506193904 | 56 | 207 | 5.0 | 12.0 | 0.00 | 0.00 | 0.00 | 14 | 1017.7 |
| 20260506193404 | 56 | 273 | 2.0 | 12.0 | 0.00 | 0.00 | 0.00 | 13 | 1017.7 |
| 20260506192904 | 56 | 231 | 1.0 | 3.0 | 0.00 | 0.00 | 0.00 | 13 | 1017.7 |
| 20260506192404 | 55 | 221 | 1.0 | 5.0 | 0.00 | 0.00 | 0.00 | 14 | 1017.7 |
| 20260506191904 | 55 | 239 | 2.0 | 3.0 | 0.00 | 0.00 | 0.00 | 14 | 1017.7 |
| 20260506190904 | 54 | 244 | 2.0 | 8.0 | 0.00 | 0.00 | 0.00 | 12 | 1017.8 |
| 20260506190404 | 53 | 226 | 2.0 | 7.0 | 0.00 | 0.00 | 0.00 | 13 | 1017.8 |
| 20260506185904 | 53 | 355 | 0.0 | 3.0 | 0.00 | 0.00 | 0.00 | 10 | 1017.9 |
| 20260506185404 | 52 | 28 | 1.0 | 10.0 | 0.00 | 0.00 | 0.00 | 12 | 1017.8 |
| 20260506184904 | 52 | 37 | 3.0 | 9.0 | 0.00 | 0.00 | 0.00 | 11 | 1017.8 |
| 20260506184404 | 52 | 30 | 0.0 | 5.0 | 0.00 | 0.00 | 0.00 | 12 | 1017.7 |
| 20260506183904 | 52 | 7 | 4.0 | 9.0 | 0.00 | 0.00 | 0.00 | 10 | 1017.8 |
| 20260506183404 | 52 | 46 | 1.0 | 12.0 | 0.00 | 0.00 | 0.00 | 11 | 1017.9 |
| 20260506182904 | 52 | 61 | 2.0 | 6.0 | 0.00 | 0.00 | 0.00 | 10 | 1018.0 |
| 20260506182404 | 51 | 244 | 3.0 | 12.0 | 0.00 | 0.00 | 0.00 | 13 | 1018.0 |
| 20260506181904 | 51 | 38 | 5.0 | 16.0 | 0.00 | 0.00 | 0.00 | 10 | 1018.1 |
| 20260506181404 | 51 | 22 | 1.0 | 6.0 | 0.00 | 0.00 | 0.00 | 8 | 1018.2 |
| 20260506180904 | 51 | 42 | 3.0 | 8.0 | 0.00 | 0.00 | 0.00 | 8 | 1018.2 |
| 20260506175904 | 52 | 2 | 1.0 | 6.0 | 0.00 | 0.00 | 0.00 | 7 | 1018.2 |
| 20260506175403 | 52 | 173 | 0.0 | 0.0 | 0.00 | 0.00 | 0.00 | 12 | 1018.3 |
| 20260506174904 | 51 | 164 | 0.0 | 3.0 | 0.00 | 0.00 | 0.00 | 15 | 1018.4 |
| 20260506174404 | 51 | 152 | 0.0 | 2.0 | 0.00 | 0.00 | 0.00 | 13 | 1018.4 |
| 20260506173404 | 50 | 152 | 1.0 | 3.0 | 0.00 | 0.00 | 0.00 | 17 | 1018.5 |
| 20260506172904 | 49 | 212 | 0.0 | 0.0 | 0.00 | 0.00 | 0.00 | 20 | 1018.6 |
| 20260506171904 | 49 | 229 | 2.0 | 7.0 | 0.00 | 0.00 | 0.00 | 21 | 1018.8 |
| 20260506171404 | 48 | 27 | 0.0 | 2.0 | 0.00 | 0.00 | 0.00 | 22 | 1018.8 |
| 20260506170904 | 47 | 9 | 0.0 | 1.0 | 0.00 | 0.00 | 0.00 | 23 | 1019.0 |
| 20260506170404 | 46 | 5 | 0.0 | 0.0 | 0.00 | 0.00 | 0.00 | 23 | 1018.9 |
| 20260506165919 | 46 | 9 | 0.0 | 0.0 | 0.00 | 0.00 | 0.00 | 22 | 1019.0 |
| 20260506165404 | 46 | 7 | 1.0 | 3.0 | 0.00 | 0.00 | 0.00 | 24 | 1019.0 |
| 20260506164904 | 46 | 333 | 1.0 | 3.0 | 0.00 | 0.00 | 0.00 | 23 | 1019.0 |
| 20260506164404 | 46 | 331 | 0.0 | 3.0 | 0.00 | 0.00 | 0.00 | 23 | 1019.0 |
| 20260506163903 | 46 | 315 | 0.0 | 0.0 | 0.00 | 0.00 | 0.00 | 23 | 1019.1 |
| 20260506163404 | 46 | 315 | 0.0 | 3.0 | 0.00 | 0.00 | 0.00 | 27 | 1019.2 |
| 20260506162904 | 46 | 343 | 0.0 | 2.0 | 0.00 | 0.00 | 0.00 | 28 | 1019.2 |
| 20260506162404 | 45 | 349 | 0.0 | 0.0 | 0.00 | 0.00 | 0.00 | 30 | 1019.2 |
| 20260506160904 | 44 | 219 | 0.0 | 0.0 | 0.00 | 0.00 | 0.00 | 28 | 1019.4 |
| 20260506160404 | 44 | 219 | 0.0 | 2.0 | 0.00 | 0.00 | 0.00 | 29 | 1019.4 |
| 20260506155904 | 43 | 77 | 0.0 | 0.0 | 0.00 | 0.00 | 0.00 | 29 | 1019.4 |
| 20260506155404 | 43 | 76 | 0.0 | 0.0 | 0.00 | 0.00 | 0.00 | 31 | 1019.4 |
| 20260506154904 | 43 | 76 | 0.0 | 0.0 | 0.00 | 0.00 | 0.00 | 32 | 1019.5 |
| 20260506154404 | 42 | 75 | 0.0 | 0.0 | 0.00 | 0.00 | 0.00 | 37 | 1019.5 |
| 20260506153904 | 41 | 69 | 0.0 | 0.0 | 0.00 | 0.00 | 0.00 | 37 | 1019.5 |
| 20260506153404 | 41 | 69 | 0.0 | 0.0 | 0.00 | 0.00 | 0.00 | 38 | 1019.5 |
| 20260506152904 | 41 | 69 | 0.0 | 0.0 | 0.00 | 0.00 | 0.00 | 39 | 1019.5 |
| 20260506152404 | 40 | 69 | 0.0 | 0.0 | 0.00 | 0.00 | 0.00 | 40 | 1019.5 |
| 20260506151903 | 39 | 69 | 0.0 | 0.0 | 0.00 | 0.00 | 0.00 | 39 | 1019.5 |
| 20260506151404 | 39 | 69 | 0.0 | 0.0 | 0.00 | 0.00 | 0.00 | 40 | 1019.5 |
| 20260506150904 | 39 | 69 | 0.0 | 0.0 | 0.00 | 0.00 | 0.00 | 43 | 1019.5 |
| 20260506150404 | 38 | 70 | 0.0 | 0.0 | 0.00 | 0.00 | 0.00 | 43 | 1019.5 |
| 20260506145404 | 36 | 71 | 0.0 | 0.0 | 0.00 | 0.00 | 0.00 | 48 | 1019.4 |
| 20260506144404 | 35 | 72 | 0.0 | 0.0 | 0.00 | 0.00 | 0.00 | 49 | 1019.5 |
| 20260506143904 | 34 | 72 | 0.0 | 0.0 | 0.00 | 0.00 | 0.00 | 49 | 1019.6 |
| 20260506143404 | 33 | 188 | 0.0 | 0.0 | 0.00 | 0.00 | 0.00 | 51 | 1019.7 |
| 20260506142904 | 33 | 224 | 0.0 | 0.0 | 0.00 | 0.00 | 0.00 | 54 | 1019.7 |
| 20260506142404 | 32 | 214 | 0.0 | 0.0 | 0.00 | 0.00 | 0.00 | 55 | 1019.6 |
| 20260506141903 | 32 | 214 | 0.0 | 0.0 | 0.00 | 0.00 | 0.00 | 56 | 1019.7 |
| 20260506141404 | 31 | 214 | 0.0 | 0.0 | 0.00 | 0.00 | 0.00 | 55 | 1019.7 |
| 20260506140904 | 31 | 214 | 0.0 | 0.0 | 0.00 | 0.00 | 0.00 | 56 | 1019.7 |
| 20260506140405 | 31 | 214 | 0.0 | 0.0 | 0.00 | 0.00 | 0.00 | 56 | 1019.6 |
| 20260506135904 | 30 | 214 | 0.0 | 0.0 | 0.00 | 0.00 | 0.00 | 57 | 1019.7 |
| 20260506135404 | 30 | 214 | 0.0 | 0.0 | 0.00 | 0.00 | 0.00 | 58 | 1019.7 |
| 20260506134904 | 29 | 214 | 0.0 | 0.0 | 0.00 | 0.00 | 0.00 | 61 | 1019.7 |
| 20260506134404 | 29 | 214 | 0.0 | 0.0 | 0.00 | 0.00 | 0.00 | 63 | 1019.7 |
| 20260506133404 | 27 | 214 | 0.0 | 0.0 | 0.00 | 0.00 | 0.00 | 67 | 1019.6 |
| 20260506132904 | 26 | 214 | 0.0 | 0.0 | 0.00 | 0.00 | 0.00 | 68 | 1019.5 |
| 20260506132411 | 25 | 214 | 0.0 | 0.0 | 0.00 | 0.00 | 0.00 | 68 | 1019.5 |
| 20260506131904 | 24 | 214 | 0.0 | 0.0 | 0.00 | 0.00 | 0.00 | 68 | 1019.5 |
| 20260506130904 | 23 | 214 | 0.0 | 0.0 | 0.00 | 0.00 | 0.00 | 67 | 1019.3 |
| 20260506125904 | 23 | 214 | 0.0 | 0.0 | 0.00 | 0.00 | 0.00 | 67 | 1019.2 |
| 20260506124904 | 23 | 214 | 0.0 | 0.0 | 0.00 | 0.00 | 0.00 | 66 | 1019.0 |
| 20260506124404 | 23 | 214 | 0.0 | 0.0 | 0.00 | 0.00 | 0.00 | 66 | 1018.9 |
| 20260506123904 | 23 | 214 | 0.0 | 0.0 | 0.00 | 0.00 | 0.00 | 66 | 1018.9 |
| 20260506123404 | 23 | 214 | 0.0 | 0.0 | 0.00 | 0.00 | 0.00 | 66 | 1018.8 |
| 20260506121904 | 23 | 214 | 0.0 | 0.0 | 0.00 | 0.00 | 0.00 | 64 | 1018.7 |
| 20260506121404 | 23 | 214 | 0.0 | 0.0 | 0.00 | 0.00 | 0.00 | 63 | 1018.7 |
| 20260506120904 | 24 | 214 | 0.0 | 0.0 | 0.00 | 0.00 | 0.00 | 63 | 1018.7 |
| 20260506120404 | 24 | 214 | 0.0 | 0.0 | 0.00 | 0.00 | 0.00 | 63 | 1018.7 |
| 20260506114404 | 25 | 214 | 0.0 | 0.0 | 0.00 | 0.00 | 0.00 | 63 | 1018.5 |
| 20260506113904 | 25 | 214 | 0.0 | 0.0 | 0.00 | 0.00 | 0.00 | 63 | 1018.4 |
| 20260506113404 | 25 | 214 | 0.0 | 0.0 | 0.00 | 0.00 | 0.00 | 64 | 1018.4 |
| 20260506112904 | 25 | 214 | 0.0 | 0.0 | 0.00 | 0.00 | 0.00 | 63 | 1018.3 |
| 20260506112405 | 25 | 215 | 0.0 | 0.0 | 0.00 | 0.00 | 0.00 | 63 | 1018.2 |
| 20260506111904 | 25 | 214 | 0.0 | 0.0 | 0.00 | 0.00 | 0.00 | 63 | 1018.2 |
| 20260506111404 | 25 | 214 | 0.0 | 0.0 | 0.00 | 0.00 | 0.00 | 63 | 1018.2 |
| 20260506110904 | 25 | 214 | 0.0 | 0.0 | 0.00 | 0.00 | 0.00 | 61 | 1018.2 |
| 20260506110404 | 25 | 214 | 0.0 | 0.0 | 0.00 | 0.00 | 0.00 | 59 | 1018.1 |
| 20260506105904 | 25 | 214 | 0.0 | 0.0 | 0.00 | 0.00 | 0.00 | 60 | 1018.0 |
| 20260506105404 | 26 | 214 | 0.0 | 0.0 | 0.00 | 0.00 | 0.00 | 60 | 1018.0 |
| 20260506104904 | 26 | 214 | 0.0 | 0.0 | 0.00 | 0.00 | 0.00 | 60 | 1017.9 |
| 20260506104405 | 26 | 214 | 0.0 | 0.0 | 0.00 | 0.00 | 0.00 | 60 | 1017.9 |
| 20260506103904 | 26 | 214 | 0.0 | 0.0 | 0.00 | 0.00 | 0.00 | 60 | 1017.8 |
| 20260506103404 | 26 | 214 | 0.0 | 0.0 | 0.00 | 0.00 | 0.00 | 60 | 1017.8 |
| 20260506102404 | 27 | 214 | 0.0 | 0.0 | 0.00 | 0.00 | 0.00 | 60 | 1017.8 |
| 20260506101904 | 27 | 214 | 0.0 | 0.0 | 0.00 | 0.00 | 0.00 | 60 | 1017.7 |
| 20260506101404 | 27 | 214 | 0.0 | 0.0 | 0.00 | 0.00 | 0.00 | 60 | 1017.6 |
| 20260506100904 | 27 | 214 | 0.0 | 0.0 | 0.00 | 0.00 | 0.00 | 59 | 1017.6 |
| 20260506100404 | 27 | 215 | 0.0 | 0.0 | 0.00 | 0.00 | 0.00 | 58 | 1017.5 |
| 20260506095904 | 27 | 215 | 0.0 | 0.0 | 0.00 | 0.00 | 0.00 | 58 | 1017.5 |
| 20260506095404 | 27 | 215 | 0.0 | 0.0 | 0.00 | 0.00 | 0.00 | 58 | 1017.5 |
| 20260506094905 | 27 | 215 | 0.0 | 0.0 | 0.00 | 0.00 | 0.00 | 58 | 1017.4 |
| 20260506094404 | 28 | 215 | 0.0 | 0.0 | 0.00 | 0.00 | 0.00 | 58 | 1017.4 |
| 20260506093904 | 28 | 215 | 0.0 | 0.0 | 0.00 | 0.00 | 0.00 | 58 | 1017.4 |
| 20260506093404 | 28 | 215 | 0.0 | 0.0 | 0.00 | 0.00 | 0.00 | 57 | 1017.4 |
| 20260506092404 | 28 | 215 | 0.0 | 0.0 | 0.00 | 0.00 | 0.00 | 54 | 1017.3 |
| 20260506091904 | 28 | 215 | 0.0 | 0.0 | 0.00 | 0.00 | 0.00 | 54 | 1017.2 |
| 20260506090904 | 29 | 215 | 0.0 | 0.0 | 0.00 | 0.00 | 0.00 | 55 | 1017.2 |
| 20260506085907 | 29 | 215 | 0.0 | 0.0 | 0.00 | 0.00 | 0.00 | 52 | 1017.3 |
| 20260506084905 | 29 | 215 | 0.0 | 0.0 | 0.00 | 0.00 | 0.00 | 51 | 1017.1 |
| 20260506084404 | 30 | 215 | 0.0 | 0.0 | 0.00 | 0.00 | 0.00 | 51 | 1017.1 |
| 20260506083904 | 30 | 215 | 0.0 | 0.0 | 0.00 | 0.00 | 0.00 | 50 | 1017.1 |
| 20260506083404 | 30 | 215 | 0.0 | 0.0 | 0.00 | 0.00 | 0.00 | 50 | 1017.0 |
| 20260506082404 | 30 | 215 | 0.0 | 0.0 | 0.00 | 0.00 | 0.00 | 48 | 1016.9 |
| 20260506081904 | 31 | 215 | 0.0 | 0.0 | 0.00 | 0.00 | 0.00 | 47 | 1016.9 |
| 20260506081404 | 31 | 215 | 0.0 | 0.0 | 0.00 | 0.00 | 0.00 | 48 | 1016.9 |
| 20260506080904 | 31 | 215 | 0.0 | 0.0 | 0.00 | 0.00 | 0.00 | 47 | 1016.8 |
| 20260506080405 | 32 | 215 | 0.0 | 0.0 | 0.00 | 0.00 | 0.00 | 46 | 1016.8 |
| 20260506072905 | 34 | 215 | 0.0 | 0.0 | 0.00 | 0.00 | 0.00 | 41 | 1016.5 |
| 20260506072404 | 34 | 215 | 0.0 | 0.0 | 0.00 | 0.00 | 0.00 | 41 | 1016.5 |
| 20260506071904 | 34 | 215 | 0.0 | 0.0 | 0.00 | 0.00 | 0.00 | 41 | 1016.5 |
| 20260506071404 | 35 | 215 | 0.0 | 7.0 | 0.00 | 0.00 | 0.00 | 39 | 1016.4 |
| 20260506070904 | 35 | 219 | 0.0 | 3.0 | 0.00 | 0.00 | 0.00 | 38 | 1016.3 |
| 20260506070404 | 36 | 257 | 0.0 | 0.0 | 0.00 | 0.00 | 0.00 | 38 | 1016.3 |
| 20260506062404 | 38 | 257 | 0.0 | 0.0 | 0.00 | 0.00 | 0.00 | 31 | 1016.2 |
| 20260506061404 | 39 | 257 | 0.0 | 0.0 | 0.00 | 0.00 | 0.00 | 31 | 1015.9 |
| 20260506060904 | 39 | 257 | 0.0 | 0.0 | 0.00 | 0.00 | 0.00 | 31 | 1015.9 |
| 20260506060404 | 39 | 257 | 0.0 | 0.0 | 0.00 | 0.00 | 0.00 | 31 | 1015.8 |
| 20260506051403 | 40 | 248 | 0.0 | 0.0 | 0.00 | 0.00 | 0.00 | 27 | 1015.6 |
| 20260506050905 | 40 | 252 | 0.0 | 0.0 | 0.00 | 0.00 | 0.00 | 27 | 1015.6 |
| 20260506050404 | 40 | 248 | 0.0 | 0.0 | 0.00 | 0.00 | 0.00 | 26 | 1015.4 |
| 20260506044904 | 40 | 238 | 1.0 | 5.0 | 0.00 | 0.00 | 0.00 | 30 | 1015.1 |
| 20260506044404 | 40 | 233 | 0.0 | 0.0 | 0.00 | 0.00 | 0.00 | 31 | 1015.5 |
| 20260506043904 | 40 | 232 | 0.0 | 0.0 | 0.00 | 0.00 | 0.00 | 33 | 1015.3 |
| 20260506043404 | 39 | 232 | 0.0 | 0.0 | 0.00 | 0.00 | 0.00 | 33 | 1015.5 |
| 20260506042404 | 39 | 231 | 0.0 | 0.0 | 0.00 | 0.00 | 0.00 | 37 | 1015.4 |
| 20260506041904 | 39 | 355 | 0.0 | 0.0 | 0.00 | 0.00 | 0.00 | 36 | 1015.3 |
| 20260506041404 | 39 | 34 | 0.0 | 0.0 | 0.00 | 0.00 | 0.00 | 38 | 1015.4 |
| 20260506035404 | 39 | 34 | 0.0 | 0.0 | 0.00 | 0.00 | 0.00 | 43 | 1015.4 |
| 20260506034904 | 39 | 34 | 0.0 | 0.0 | 0.00 | 0.00 | 0.00 | 44 | 1015.3 |
| 20260506034404 | 39 | 34 | 0.0 | 0.0 | 0.00 | 0.00 | 0.00 | 43 | 1015.5 |
| 20260506033904 | 39 | 34 | 0.0 | 0.0 | 0.00 | 0.00 | 0.00 | 43 | 1015.3 |
| 20260506033404 | 39 | 32 | 0.0 | 0.0 | 0.00 | 0.00 | 0.00 | 43 | 1015.5 |
| 20260506032904 | 39 | 32 | 0.0 | 0.0 | 0.00 | 0.00 | 0.00 | 45 | 1015.6 |
| 20260506032404 | 39 | 32 | 3.0 | 9.0 | 0.00 | 0.00 | 0.00 | 45 | 1015.3 |
| 20260506031904 | 39 | 13 | 5.0 | 12.0 | 0.00 | 0.00 | 0.00 | 44 | 1015.1 |
| 20260506031404 | 40 | 38 | 6.0 | 12.0 | 0.00 | 0.00 | 0.00 | 44 | 1015.2 |
| 20260506030907 | 40 | 48 | 5.0 | 10.0 | 0.00 | 0.00 | 0.00 | 47 | 1015.1 |
| 20260506030404 | 41 | 32 | 7.0 | 12.0 | 0.00 | 0.00 | 0.00 | 46 | 1015.1 |
| 20260506025904 | 41 | 0 | 5.0 | 13.0 | 0.00 | 0.00 | 0.00 | 44 | 1015.0 |
| 20260506025404 | 42 | 32 | 5.0 | 8.0 | 0.00 | 0.00 | 0.00 | 43 | 1014.6 |
| 20260506024904 | 42 | 35 | 5.0 | 12.0 | 0.00 | 0.00 | 0.00 | 43 | 1014.4 |
| 20260506024404 | 43 | 43 | 5.0 | 10.0 | 0.00 | 0.00 | 0.00 | 42 | 1014.1 |
| 20260506023904 | 43 | 43 | 1.0 | 9.0 | 0.00 | 0.00 | 0.00 | 40 | 1014.1 |
| 20260506023404 | 44 | 45 | 3.0 | 12.0 | 0.00 | 0.00 | 0.00 | 39 | 1013.8 |
| 20260506022903 | 44 | 36 | 7.0 | 15.0 | 0.00 | 0.00 | 0.00 | 37 | 1013.5 |
| 20260506021911 | 46 | 36 | 7.0 | 15.0 | 0.00 | 0.00 | 0.00 | 34 | 1013.0 |
| 20260506021404 | 46 | 33 | 3.0 | 8.0 | 0.00 | 0.00 | 0.00 | 31 | 1013.1 |
| 20260506020904 | 47 | 46 | 3.0 | 6.0 | 0.00 | 0.00 | 0.00 | 29 | 1012.6 |
| 20260506020404 | 47 | 37 | 4.0 | 12.0 | 0.00 | 0.00 | 0.00 | 27 | 1012.7 |
| 20260506015904 | 48 | 347 | 4.0 | 12.0 | 0.00 | 0.00 | 0.00 | 26 | 1012.4 |
| 20260506015404 | 48 | 35 | 2.0 | 10.0 | 0.00 | 0.00 | 0.00 | 24 | 1012.3 |
| 20260506014405 | 49 | 52 | 0.0 | 1.0 | 0.00 | 0.00 | 0.00 | 23 | 1012.1 |
| 20260506013904 | 50 | 324 | 0.0 | 9.0 | 0.00 | 0.00 | 0.00 | 22 | 1011.7 |
| 20260506013404 | 50 | 23 | 0.0 | 5.0 | 0.00 | 0.00 | 0.00 | 20 | 1011.6 |
| 20260506012905 | 51 | 33 | 1.0 | 5.0 | 0.00 | 0.00 | 0.00 | 19 | 1011.5 |
| 20260506012404 | 51 | 29 | 0.0 | 3.0 | 0.00 | 0.00 | 0.00 | 18 | 1011.6 |
| 20260506011905 | 52 | 54 | 0.0 | 7.0 | 0.00 | 0.00 | 0.00 | 18 | 1011.5 |
| 20260506011407 | 52 | 44 | 1.0 | 6.0 | 0.00 | 0.00 | 0.00 | 17 | 1011.3 |